FW1304 Weather Reports


time (UTC)temp
C
wind
direction
speed
KPH
gust
KPH
rain 1hr
cm
rain 24hr
cm
rain mn
cm
humidity
%
barometer
mb
20260506151319 4 303 0.0 8.0 0.00 0.00 0.00 56 1014.6
20260506150836 4 299 0.0 3.2 0.00 0.00 0.00 56 1014.6
20260506150324 3 312 0.0 8.0 0.00 0.00 0.00 57 1014.5
20260506145826 3 53 0.0 8.0 0.00 0.00 0.00 56 1014.6
20260506145321 3 317 0.0 6.4 0.00 0.00 0.00 55 1014.6
20260506144838 3 282 0.0 3.2 0.00 0.00 0.00 57 1014.6
20260506144323 3 325 0.0 8.0 0.00 0.00 0.00 56 1014.5
20260506143901 3 337 0.0 3.2 0.00 0.00 0.00 57 1014.5
20260506143327 3 288 0.0 3.2 0.00 0.00 0.00 57 1014.6
20260506142821 3 360 0.0 6.4 0.00 0.00 0.00 57 1014.6
20260506142319 3 310 0.0 6.4 0.00 0.00 0.00 58 1014.6
20260506141823 3 360 0.0 3.2 0.00 0.00 0.00 57 1014.5
20260506141328 3 294 0.0 3.2 0.00 0.00 0.00 57 1014.5
20260506140844 3 319 0.0 3.2 0.00 0.00 0.00 57 1014.5
20260506140319 3 36 0.0 3.2 0.00 0.00 0.00 58 1014.5
20260506135818 3 274 0.0 3.2 0.00 0.00 0.00 58 1014.4
20260506135326 3 333 0.0 3.2 0.00 0.00 0.00 58 1014.3
20260506134822 3 301 0.0 6.4 0.00 0.00 0.00 58 1014.2
20260506134324 3 335 0.0 6.4 0.00 0.00 0.00 59 1014.2
20260506133832 3 329 0.0 6.4 0.00 0.00 0.00 59 1014.2
20260506133329 3 300 0.0 4.8 0.00 0.00 0.00 59 1014.3
20260506132830 3 314 0.0 1.6 0.00 0.00 0.00 59 1014.1
20260506132317 3 351 0.0 1.6 0.00 0.00 0.00 62 1014.0
20260506131813 3 323 0.0 1.6 0.00 0.00 0.00 61 1014.0
20260506131317 3 310 0.0 1.6 0.00 0.00 0.00 61 1013.9
20260506130824 3 321 0.0 1.6 0.00 0.00 0.00 62 1013.9
20260506130320 2 300 0.0 1.6 0.00 0.00 0.00 63 1013.8
20260506125823 2 331 0.0 1.6 0.00 0.00 0.00 64 1013.6
20260506125339 2 309 0.0 1.6 0.00 0.00 0.00 65 1013.7
20260506124827 2 300 0.0 3.2 0.00 0.00 0.00 66 1013.5
20260506124323 2 252 0.0 1.6 0.00 0.00 0.00 67 1013.5
20260506123819 1 327 0.0 1.6 0.00 0.00 0.00 68 1013.5
20260506123327 1 296 0.0 0.0 0.00 0.00 0.00 69 1013.6
20260506122829 1 301 0.0 0.0 0.00 0.00 0.00 70 1013.5
20260506122316 1 297 0.0 0.0 0.00 0.00 0.00 71 1013.5
20260506121833 1 318 0.0 0.0 0.00 0.00 0.00 73 1013.4
20260506121330 1 325 0.0 0.0 0.00 0.00 0.00 73 1013.4
20260506120838 0 283 0.0 0.0 0.00 0.00 0.00 74 1013.3
20260506120313 0 293 0.0 0.0 0.00 0.00 0.00 75 1013.3
20260506115815 0 294 0.0 0.0 0.00 0.00 0.00 75 1013.3
20260506115331 0 280 0.0 0.0 0.00 0.00 0.00 76 1013.2
20260506114818 0 273 0.0 0.0 0.00 0.00 0.00 76 1013.2
20260506114320 0 263 0.0 0.0 0.00 0.00 0.00 76 1013.1
20260506113835 0 282 0.0 0.0 0.00 0.00 0.00 75 1013.0
20260506113322 0 284 0.0 0.0 0.00 0.00 0.00 75 1013.0
20260506112826 0 297 0.0 0.0 0.00 0.00 0.00 75 1012.9
20260506112322 0 299 0.0 0.0 0.00 0.00 0.00 75 1013.0
20260506111829 0 252 0.0 0.0 0.00 0.00 0.00 75 1013.0
20260506111332 0 294 0.0 0.0 0.00 0.00 0.00 75 1013.0
20260506110829 0 294 0.0 0.0 0.00 0.00 0.00 75 1013.1
20260506110316 0 275 0.0 0.0 0.00 0.00 0.00 75 1013.1
20260506105828 0 275 0.0 0.0 0.00 0.00 0.00 74 1013.1
20260506105315 0 282 0.0 0.0 0.00 0.00 0.00 74 1013.0
20260506104832 0 296 0.0 0.0 0.00 0.00 0.00 74 1012.9
20260506104335 0 303 0.0 0.0 0.00 0.00 0.00 74 1012.9
20260506103822 0 297 0.0 0.0 0.00 0.00 0.00 73 1012.7
20260506103335 0 270 0.0 0.0 0.00 0.00 0.00 73 1012.6
20260506102837 0 265 0.0 0.0 0.00 0.00 0.00 73 1012.6
20260506102355 0 283 0.0 0.0 0.00 0.00 0.00 72 1012.5
20260506101821 0 301 0.0 0.0 0.00 0.00 0.00 72 1012.4
20260506101324 0 297 0.0 0.0 0.00 0.00 0.00 72 1012.5
20260506100841 0 296 0.0 0.0 0.00 0.00 0.00 71 1012.5
20260506100349 0 293 0.0 0.0 0.00 0.00 0.00 71 1012.4
20260506095832 0 308 0.0 0.0 0.00 0.00 0.00 70 1012.5
20260506095319 0 293 0.0 0.0 0.00 0.00 0.00 70 1012.5
20260506094836 0 281 0.0 0.0 0.00 0.00 0.00 70 1012.5
20260506094318 0 288 0.0 0.0 0.00 0.00 0.00 70 1012.6
20260506093834 0 292 0.0 0.0 0.00 0.00 0.00 70 1012.6
20260506093322 0 279 0.0 0.0 0.00 0.00 0.00 70 1012.5
20260506092824 0 277 0.0 0.0 0.00 0.00 0.00 70 1012.5
20260506092340 0 275 0.0 0.0 0.00 0.00 0.00 70 1012.6
20260506091828 0 266 0.0 0.0 0.00 0.00 0.00 70 1012.5
20260506091324 0 273 0.0 0.0 0.00 0.00 0.00 70 1012.4
20260506090820 0 268 0.0 0.0 0.00 0.00 0.00 70 1012.4
20260506090323 0 282 0.0 0.0 0.00 0.00 0.00 70 1012.4
20260506085826 0 288 0.0 0.0 0.00 0.00 0.00 69 1012.3
20260506085323 0 297 0.0 0.0 0.00 0.00 0.00 69 1012.2
20260506084839 0 298 0.0 0.0 0.00 0.00 0.00 69 1012.1
20260506084342 0 298 0.0 0.0 0.00 0.00 0.00 68 1012.0
20260506083829 0 298 0.0 0.0 0.00 0.00 0.00 68 1012.1
20260506083325 0 300 0.0 0.0 0.00 0.00 0.00 68 1012.2
20260506082825 0 301 0.0 0.0 0.00 0.00 0.00 68 1012.2
20260506082342 0 301 0.0 0.0 0.00 0.00 0.00 68 1012.3
20260506081850 0 302 0.0 0.0 0.00 0.00 0.00 68 1012.4
20260506081400 0 290 0.0 0.0 0.00 0.00 0.00 68 1012.3
20260506080823 0 327 0.0 0.0 0.00 0.00 0.00 68 1012.3
20260506080340 0 290 0.0 0.0 0.00 0.00 0.00 68 1012.3
20260506073323 1 295 0.0 0.0 0.00 0.00 0.00 67 1012.0
20260506072834 1 308 0.0 0.0 0.00 0.00 0.00 66 1011.9
20260506072321 1 309 0.0 0.0 0.00 0.00 0.00 66 1011.9
20260506071816 1 309 0.0 0.0 0.00 0.00 0.00 66 1011.9
20260506071340 1 310 0.0 0.0 0.00 0.00 0.00 66 1011.9
20260506070815 1 313 0.0 0.0 0.00 0.00 0.00 65 1012.0
20260506070323 1 317 0.0 0.0 0.00 0.00 0.00 65 1012.0
20260506062332 1 311 0.0 0.0 0.00 0.00 0.00 63 1012.0
20260506061830 2 315 0.0 0.0 0.00 0.00 0.00 62 1012.0
20260506061352 2 317 0.0 0.0 0.00 0.00 0.00 62 1012.0
20260506060819 2 320 0.0 0.0 0.00 0.00 0.00 62 1012.0
20260506060316 2 318 0.0 0.0 0.00 0.00 0.00 62 1012.0
20260506051341 2 311 0.0 0.0 0.00 0.00 0.00 59 1011.8
20260506050823 2 296 0.0 0.0 0.00 0.00 0.00 59 1011.7
20260506050320 2 325 0.0 0.0 0.00 0.00 0.00 59 1011.7
20260506044823 3 321 0.0 0.0 0.00 0.00 0.00 58 1011.6
20260506044338 3 327 0.0 0.0 0.00 0.00 0.00 58 1011.6
20260506043823 3 360 0.0 0.0 0.00 0.00 0.00 57 1011.6
20260506043320 3 306 0.0 1.6 0.00 0.00 0.00 57 1011.7
20260506042823 3 5 0.0 0.0 0.00 0.00 0.00 57 1011.6
20260506042330 3 13 0.0 0.0 0.00 0.00 0.00 56 1011.6
20260506041828 3 320 0.0 0.0 0.00 0.00 0.00 56 1011.6
20260506041325 3 327 0.0 0.0 0.00 0.00 0.00 56 1011.6
20260506040841 3 318 0.0 0.0 0.00 0.00 0.00 55 1011.5
20260506040328 3 301 0.0 0.0 0.00 0.00 0.00 55 1011.5
20260506035830 3 326 0.0 0.0 0.00 0.00 0.00 55 1011.4
20260506035347 4 317 0.0 0.0 0.00 0.00 0.00 54 1011.4
20260506034813 4 321 0.0 0.0 0.00 0.00 0.00 54 1011.3
20260506034342 4 315 0.0 3.2 0.00 0.00 0.00 53 1011.3
20260506033828 4 318 0.0 3.2 0.00 0.00 0.00 53 1011.2
20260506033325 4 310 0.0 1.6 0.00 0.00 0.00 53 1011.1
20260506032821 4 306 0.0 1.6 0.00 0.00 0.00 54 1011.0
20260506032338 4 338 0.0 0.0 0.00 0.00 0.00 54 1011.0
20260506031826 4 307 0.0 0.0 0.00 0.00 0.00 54 1011.0
20260506031329 4 304 0.0 0.0 0.00 0.00 0.00 53 1011.0
20260506030845 5 310 0.0 0.0 0.00 0.00 0.00 53 1010.9
20260506030340 5 327 0.0 0.0 0.00 0.00 0.00 52 1010.9
20260506025839 5 306 0.0 0.0 0.00 0.00 0.00 52 1010.9
20260506025327 5 321 0.0 0.0 0.00 0.00 0.00 52 1010.9
20260506024822 5 323 0.0 0.0 0.00 0.00 0.00 52 1010.9
20260506024322 5 321 0.0 1.6 0.00 0.00 0.00 51 1010.9
20260506023829 5 325 0.0 1.6 0.00 0.00 0.00 51 1010.7
20260506023345 5 317 0.0 3.2 0.00 0.00 0.00 51 1010.7
20260506022819 5 309 0.0 3.2 0.00 0.00 0.00 51 1010.6
20260506022337 5 311 0.0 3.2 0.00 0.00 0.00 51 1010.6
20260506021828 5 328 0.0 3.2 0.00 0.00 0.00 51 1010.5
20260506021331 5 326 0.0 3.2 0.00 0.00 0.00 51 1010.5
20260506020818 6 343 0.0 3.2 0.00 0.00 0.00 50 1010.4
20260506020314 6 338 0.0 6.4 0.00 0.00 0.00 50 1010.3
20260506015815 6 327 0.0 6.4 0.00 0.00 0.00 50 1010.2
20260506015332 6 315 0.0 6.4 0.00 0.00 0.00 50 1010.1
20260506014820 6 317 0.0 6.4 0.00 0.00 0.00 50 1010.1
20260506014316 6 336 0.0 1.6 0.00 0.00 0.00 50 1010.0
20260506013833 6 350 0.0 1.6 0.00 0.00 0.00 50 1010.0
20260506013328 6 355 0.0 1.6 0.00 0.00 0.00 50 1009.9
20260506012831 6 325 0.0 6.4 0.00 0.00 0.00 49 1009.8
20260506012318 7 17 0.0 8.0 0.00 0.00 0.00 48 1009.8
20260506011816 7 29 0.0 8.0 0.00 0.00 0.00 48 1009.7
20260506011318 7 314 0.0 8.0 0.00 0.00 0.00 47 1009.6
20260506010827 7 309 0.0 3.2 0.00 0.00 0.00 47 1009.6
20260506010322 7 302 0.0 9.7 0.00 0.00 0.00 46 1009.4
20260506005824 7 350 0.0 8.0 0.00 0.00 0.00 46 1009.4
20260506005342 7 296 0.0 8.0 0.00 0.00 0.00 45 1009.4
20260506004830 7 333 0.0 8.0 0.00 0.00 0.00 46 1009.3
20260506004328 7 309 0.0 3.2 0.00 0.00 0.00 45 1009.2
20260506003816 7 299 0.0 1.6 0.00 0.00 0.00 45 1009.1
20260506003332 7 292 0.0 1.6 0.00 0.00 0.00 44 1009.1
20260506002814 8 322 0.0 6.4 0.00 0.00 0.00 44 1009.1
20260506002333 8 261 0.0 6.4 0.00 0.00 0.00 43 1009.0
20260506001819 8 297 1.6 6.4 0.00 0.00 0.00 42 1008.9
20260506001322 8 327 0.0 9.7 0.00 0.00 0.00 42 1008.8
20260506000839 8 273 0.0 9.7 0.00 0.00 0.00 42 1008.8
20260506000326 9 311 0.0 8.0 0.00 0.00 0.00 42 1008.7
20260505235829 9 327 0.0 8.0 0.00 0.00 0.00 43 1008.7
20260505235324 8 252 0.0 6.4 0.00 0.00 0.00 43 1008.7
20260505234840 8 324 0.0 6.4 0.00 0.00 0.00 43 1008.7
20260505234323 8 327 0.0 6.4 0.00 0.00 0.00 43 1008.6
20260505233901 8 307 0.0 6.4 0.00 0.00 0.00 43 1008.5
20260505233358 8 290 0.0 3.2 0.00 0.00 0.00 44 1008.5
20260505232838 8 310 0.0 6.4 0.00 0.00 0.00 43 1008.5
20260505232321 8 355 0.0 6.4 0.00 0.00 0.00 43 1008.4
20260505231818 8 331 0.0 3.2 0.00 0.00 0.00 43 1008.4
20260505231323 8 15 0.0 6.4 0.00 0.00 0.00 42 1008.4
20260505230839 9 273 0.0 8.0 0.00 0.00 0.00 41 1008.4
20260505230326 10 349 0.0 8.0 0.00 0.00 0.00 41 1008.3
20260505225822 10 296 0.0 8.0 0.00 0.00 0.00 42 1008.2
20260505225320 9 296 0.0 11.3 0.00 0.00 0.00 41 1008.3
20260505224836 9 290 1.6 11.3 0.00 0.00 0.00 41 1008.2
20260505224341 9 350 0.0 8.0 0.00 0.00 0.00 42 1008.1
20260505223858 9 319 0.0 8.0 0.00 0.00 0.00 42 1008.3
20260505223354 9 336 0.0 6.4 0.00 0.00 0.00 41 1008.3
20260505222836 9 302 0.0 8.0 0.00 0.00 0.00 40 1008.1
20260505222343 9 297 0.0 8.0 0.00 0.00 0.00 41 1008.1
20260505221818 9 292 0.0 6.4 0.00 0.00 0.00 40 1008.3
20260505221322 9 235 0.0 3.2 0.00 0.00 0.00 41 1008.1
20260505220837 9 300 0.0 6.4 0.00 0.00 0.00 40 1008.1
20260505220323 9 304 0.0 6.4 0.00 0.00 0.00 41 1008.1
20260505215819 9 306 1.6 6.4 0.00 0.00 0.00 40 1008.3
20260505215335 9 275 0.0 8.0 0.00 0.00 0.00 41 1008.2
20260505214831 9 277 1.6 8.0 0.00 0.00 0.00 40 1008.3
20260505214333 9 273 0.0 6.4 0.00 0.00 0.00 41 1008.2
20260505213817 9 310 0.0 3.2 0.00 0.00 0.00 40 1008.3
20260505213313 9 259 0.0 6.4 0.00 0.00 0.00 41 1008.3
20260505212816 10 269 1.6 8.0 0.00 0.00 0.00 40 1008.4
20260505212353 10 335 0.0 8.0 0.00 0.00 0.00 39 1008.3
20260505211819 10 255 1.6 6.4 0.00 0.00 0.00 40 1008.3
20260505211318 10 285 0.0 6.4 0.00 0.00 0.00 42 1008.4
20260505210814 9 318 0.0 8.0 0.00 0.00 0.00 42 1008.4
20260505210352 9 284 0.0 8.0 0.00 0.00 0.00 42 1008.5
20260505205827 9 285 0.0 12.9 0.00 0.00 0.00 42 1008.6
20260505205324 9 307 0.0 6.4 0.00 0.00 0.00 41 1008.5
20260505204831 9 331 0.0 6.4 0.00 0.00 0.00 41 1008.6
20260505204315 9 338 0.0 6.4 0.00 0.00 0.00 42 1008.5
20260505203831 9 326 0.0 8.0 0.00 0.00 0.00 42 1008.5
20260505203319 9 302 0.0 6.4 0.00 0.00 0.00 43 1008.5
20260505202824 8 323 1.6 8.0 0.00 0.00 0.00 42 1008.6
20260505202321 8 324 0.0 8.0 0.00 0.00 0.00 42 1008.5
20260505201829 9 44 0.0 8.0 0.00 0.00 0.00 43 1008.6
20260505201403 8 329 0.0 6.4 0.00 0.00 0.00 42 1008.7
20260505200836 8 313 0.0 6.4 0.00 0.00 0.00 41 1008.6
20260505200323 8 285 0.0 6.4 0.00 0.00 0.00 42 1008.7
20260505195820 8 311 0.0 3.2 0.00 0.00 0.00 44 1008.7
20260505195316 8 294 0.0 8.0 0.00 0.00 0.00 43 1008.6
20260505194824 8 332 1.6 8.0 0.00 0.00 0.00 43 1008.7
20260505194326 8 334 0.0 17.7 0.00 0.00 0.00 42 1008.7
20260505193844 8 252 0.0 17.7 0.00 0.00 0.00 42 1008.6
20260505193340 8 332 0.0 3.2 0.00 0.00 0.00 42 1008.5
20260505192822 8 314 0.0 3.2 0.00 0.00 0.00 43 1008.5
20260505192325 8 313 0.0 6.4 0.00 0.00 0.00 42 1008.6
20260505191822 8 286 1.6 9.7 0.00 0.00 0.00 43 1008.7
20260505191325 8 294 0.0 3.2 0.00 0.00 0.00 43 1008.7
20260505190902 8 323 0.0 1.6 0.00 0.00 0.00 43 1008.6
20260505190327 8 323 0.0 3.2 0.00 0.00 0.00 43 1008.7
20260505185830 8 286 0.0 3.2 0.00 0.00 0.00 43 1008.7
20260505185327 8 321 0.0 0.0 0.00 0.00 0.00 43 1008.7
20260505184814 8 306 0.0 1.6 0.00 0.00 0.00 45 1008.7
20260505184315 8 312 0.0 1.6 0.00 0.00 0.00 42 1008.7
20260505183850 8 344 0.0 1.6 0.00 0.00 0.00 43 1008.7
20260505183325 8 311 0.0 3.2 0.00 0.00 0.00 44 1008.7
20260505182821 8 315 0.0 3.2 0.00 0.00 0.00 43 1008.7
20260505182320 8 273 0.0 3.2 0.00 0.00 0.00 43 1008.6
20260505181827 8 315 0.0 3.2 0.00 0.00 0.00 43 1008.6
20260505181327 8 252 0.0 6.4 0.00 0.00 0.00 42 1008.6
20260505180824 8 308 0.0 8.0 0.00 0.00 0.00 42 1008.6
20260505180357 8 309 1.6 6.4 0.00 0.00 0.00 43 1008.6
20260505175822 8 304 0.0 9.7 0.00 0.00 0.00 43 1008.6
20260505175328 8 267 0.0 9.7 0.00 0.00 0.00 43 1008.6
20260505174822 8 280 0.0 9.7 0.00 0.00 0.00 42 1008.6
20260505174325 8 288 0.0 9.7 0.00 0.00 0.00 42 1008.6
20260505173830 8 296 0.0 3.2 0.00 0.00 0.00 43 1008.7
20260505173346 7 271 0.0 3.2 0.00 0.00 0.00 44 1008.7
20260505172850 7 314 0.0 8.0 0.00 0.00 0.00 43 1008.6
20260505172316 8 275 0.0 8.0 0.00 0.00 0.00 43 1008.6
20260505171815 8 269 0.0 8.0 0.00 0.00 0.00 43 1008.7
20260505171317 8 328 0.0 3.2 0.00 0.00 0.00 42 1008.7
20260505170826 8 261 0.0 4.8 0.00 0.00 0.00 42 1008.7
20260505170322 8 244 0.0 6.4 0.00 0.00 0.00 44 1008.6
20260505165822 8 305 1.6 6.4 0.00 0.00 0.00 43 1008.7
20260505165330 8 234 0.0 8.0 0.00 0.00 0.00 47 1008.6
20260505164827 8 296 0.0 8.0 0.00 0.00 0.00 42 1008.5
20260505164322 8 321 0.0 6.4 0.00 0.00 0.00 44 1008.5
20260505163836 7 306 0.0 6.4 0.00 0.00 0.00 44 1008.6
20260505163323 7 269 0.0 8.0 0.00 0.00 0.00 44 1008.7
20260505162821 8 278 1.6 8.0 0.00 0.00 0.00 43 1008.6
20260505162318 8 348 0.0 6.4 0.00 0.00 0.00 45 1008.6
20260505161825 8 298 0.0 8.0 0.00 0.00 0.00 44 1008.6
20260505161327 8 297 1.6 8.0 0.00 0.00 0.00 44 1008.6
20260505160824 7 289 0.0 8.0 0.00 0.00 0.00 45 1008.6
20260505160340 7 296 0.0 8.0 0.00 0.00 0.00 46 1008.7
20260505153314 7 328 0.0 6.4 0.00 0.00 0.00 48 1008.6
20260505152845 7 333 1.6 6.4 0.00 0.00 0.00 48 1008.6
20260505152401 7 234 0.0 3.2 0.00 0.00 0.00 48 1008.5
20260505151827 6 339 0.0 8.0 0.00 0.00 0.00 48 1008.5